Back to catalog

COSMOS 2251 DEB

LostLEO
NORAD 37269·DEBRIS·🇷🇺 Russia

Launched Jun 16, 1993 from Plesetsk Cosmodrome

Loading…

Next Passes (next 24 hours)

TLE

StaleSource: Space-Track

Epoch: Oct 31, 2024, 13:14 UTC

1 37269U 93036BHH 24305.55174497  .00011490  00000-0  47466-2 0  9998
2 37269  74.1698  40.5229 0115451  29.2464 331.5079 14.23214501598935

Track COSMOS 2251 DEB in real time with AllMySat

Download on the App Store